Starlink 2380

operational
NORAD ID: 47799 Int'l Des: 2021-018 Owner: SPXS Country: US Constellation: starlink
LEOCIRCULARSTARLINK_TYPE

Starlink 2380について

説明を読み込み中...

リアルタイム位置

3D地球を読み込み中...

次回通過

高度履歴

Altitude vs Time

uPlot chart will show altitude changes over time

軌道要素

1 47799U 21018N 25347.94558506 .00013783 00000-0 94216-3 0 9998
2 47799 53.0537 256.5400 0001425 97.0330 263.0821 15.06407968263949
Epoch: Dec 13, 2025 • Age: 19 hours

現在のステータス

高度 552.5 km
速度 7.59 km/s
衛星直下点 51.97°N, 30.07°W
打ち上げ日 Mar 11, 2021
運用期間 4.7 years
タイプ internet

技術仕様

分類 Payload
質量 260.00 kg
乾燥質量 248.00 kg
総質量 260.00 kg
長さ 0.20 m
直径 2.80 m
スパン 9.00 m
形状 Box + pan
製造者 SPXS
バスタイプ Starlink
フェーズステータス In Orbit
所有者/国 SPXS/US

大規模コンステレーション

Loading constellations...